| time (UTC) | temp F | wind direction | speed knots | gust knots | rain 1hr in | rain 24hr in | rain mn in | humidity % | barometer mb |
| 20260509054516 | 55 | 59 | 0.9 | 2.6 | 0.00 | 0.37 | 0.00 | 93 | 1010.7 |
| 20260509053033 | 55 | 70 | 0.9 | 3.5 | 0.00 | 0.37 | 0.00 | 93 | 1010.8 |
| 20260509051530 | 55 | 26 | 1.7 | 3.5 | 0.00 | 0.37 | 0.00 | 93 | 1010.8 |
| 20260509050029 | 55 | 50 | 0.9 | 2.6 | 0.00 | 0.37 | 0.00 | 93 | 1010.7 |
| 20260509044516 | 55 | 51 | 1.7 | 5.2 | 0.00 | 0.37 | 0.00 | 93 | 1010.6 |
| 20260509043033 | 54 | 38 | 0.9 | 2.6 | 0.00 | 0.37 | 0.00 | 93 | 1010.6 |
| 20260509041524 | 55 | 68 | 0.9 | 3.5 | 0.00 | 0.37 | 0.00 | 93 | 1010.7 |
| 20260509040025 | 55 | 50 | 1.7 | 3.5 | 0.01 | 0.37 | 0.00 | 93 | 1010.4 |
| 20260509034512 | 55 | 43 | 1.7 | 3.5 | 0.01 | 0.37 | 0.37 | 93 | 1010.6 |
| 20260509033020 | 55 | 47 | 0.0 | 2.6 | 0.02 | 0.37 | 0.37 | 93 | 1010.6 |
| 20260509031529 | 55 | 46 | 0.9 | 3.5 | 0.03 | 0.37 | 0.37 | 93 | 1010.6 |
| 20260509030029 | 55 | 45 | 1.7 | 3.5 | 0.04 | 0.36 | 0.36 | 92 | 1010.8 |
| 20260509024529 | 55 | 65 | 1.7 | 4.3 | 0.04 | 0.36 | 0.36 | 92 | 1010.8 |
| 20260509023016 | 55 | 32 | 1.7 | 5.2 | 0.03 | 0.35 | 0.35 | 91 | 1011.0 |
| 20260509021522 | 55 | 43 | 2.6 | 5.2 | 0.03 | 0.34 | 0.34 | 90 | 1010.9 |
| 20260509020026 | 55 | 58 | 3.5 | 7.8 | 0.02 | 0.32 | 0.32 | 92 | 1010.8 |
| 20260509014527 | 55 | 60 | 1.7 | 6.1 | 0.02 | 0.32 | 0.32 | 93 | 1010.6 |
| 20260509013014 | 55 | 58 | 0.9 | 3.5 | 0.03 | 0.32 | 0.32 | 93 | 1010.7 |
| 20260509011517 | 55 | 46 | 1.7 | 2.6 | 0.03 | 0.31 | 0.31 | 93 | 1010.6 |
| 20260509010011 | 55 | 65 | 0.0 | 1.7 | 0.04 | 0.30 | 0.30 | 93 | 1010.7 |
| 20260509004505 | 55 | 37 | 1.7 | 2.6 | 0.06 | 0.30 | 0.30 | 93 | 1010.6 |
| 20260509003010 | 55 | 55 | 0.0 | 2.6 | 0.06 | 0.29 | 0.29 | 93 | 1010.7 |
| 20260509001516 | 55 | 35 | 1.7 | 3.5 | 0.06 | 0.28 | 0.28 | 93 | 1010.8 |
| 20260509000035 | 55 | 57 | 0.9 | 3.5 | 0.08 | 0.26 | 0.26 | 92 | 1011.0 |
| 20260508234503 | 55 | 34 | 1.7 | 2.6 | 0.06 | 0.24 | 0.24 | 92 | 1010.9 |
| 20260508233007 | 55 | 41 | 1.7 | 2.6 | 0.10 | 0.23 | 0.23 | 92 | 1011.0 |
| 20260508231512 | 55 | 37 | 0.9 | 3.5 | 0.11 | 0.22 | 0.22 | 92 | 1011.2 |
| 20260508230017 | 55 | 56 | 0.9 | 1.7 | 0.11 | 0.18 | 0.18 | 92 | 1011.2 |
| 20260508224540 | 55 | 38 | 0.9 | 2.6 | 0.14 | 0.18 | 0.18 | 91 | 1011.1 |
| 20260508223005 | 55 | 48 | 0.0 | 0.9 | 0.10 | 0.13 | 0.13 | 91 | 1011.5 |
| 20260508221508 | 55 | 88 | 0.0 | 0.9 | 0.10 | 0.11 | 0.11 | 90 | 1011.3 |
| 20260508220023 | 56 | 94 | 0.9 | 1.7 | 0.07 | 0.07 | 0.07 | 88 | 1011.6 |
| 20260508214528 | 56 | 77 | 0.0 | 3.5 | 0.04 | 0.04 | 0.04 | 86 | 1011.3 |
| 20260508213031 | 57 | 83 | 2.6 | 8.7 | 0.03 | 0.03 | 0.03 | 84 | 1011.2 |
| 20260508211510 | 60 | 94 | 2.6 | 5.2 | 0.01 | 0.01 | 0.01 | 74 | 1011.2 |
| 20260508210016 | 63 | 73 | 0.9 | 2.6 | 0.00 | 0.00 | 0.00 | 60 | 1010.8 |
| 20260508204519 | 64 | 71 | 0.9 | 1.7 | 0.00 | 0.00 | 0.00 | 57 | 1010.7 |
| 20260508203023 | 64 | 72 | 0.0 | 3.5 | 0.00 | 0.00 | 0.00 | 54 | 1010.8 |
| 20260508201506 | 65 | 61 | 0.9 | 2.6 | 0.00 | 0.00 | 0.00 | 53 | 1011.2 |
| 20260508200027 | 64 | 62 | 0.0 | 3.5 | 0.00 | 0.00 | 0.00 | 54 | 1011.2 |
| 20260508194516 | 64 | 64 | 1.7 | 4.3 | 0.00 | 0.00 | 0.00 | 53 | 1011.3 |
| 20260508193021 | 63 | 66 | 0.0 | 3.5 | 0.00 | 0.00 | 0.00 | 55 | 1011.6 |
| 20260508191523 | 63 | 60 | 1.7 | 3.5 | 0.00 | 0.00 | 0.00 | 53 | 1011.8 |
| 20260508190014 | 63 | 57 | 0.9 | 3.5 | 0.00 | 0.00 | 0.00 | 53 | 1012.1 |
| 20260508184518 | 63 | 72 | 2.6 | 3.5 | 0.00 | 0.00 | 0.00 | 52 | 1012.3 |
| 20260508183017 | 63 | 65 | 0.9 | 5.2 | 0.00 | 0.00 | 0.00 | 52 | 1012.4 |
| 20260508181524 | 63 | 72 | 1.7 | 6.1 | 0.00 | 0.00 | 0.00 | 50 | 1012.5 |
| 20260508180026 | 64 | 62 | 1.7 | 6.1 | 0.00 | 0.00 | 0.00 | 48 | 1012.5 |
| 20260508174510 | 65 | 39 | 3.5 | 11.3 | 0.00 | 0.00 | 0.00 | 47 | 1012.5 |
| 20260508173017 | 68 | 11 | 3.5 | 7.0 | 0.00 | 0.00 | 0.00 | 45 | 1012.7 |
| 20260508171532 | 67 | 22 | 6.1 | 9.6 | 0.00 | 0.00 | 0.00 | 46 | 1012.7 |
| 20260508170027 | 67 | 24 | 4.3 | 7.0 | 0.00 | 0.00 | 0.00 | 48 | 1013.2 |
| 20260508164526 | 66 | 16 | 3.5 | 7.0 | 0.00 | 0.00 | 0.00 | 48 | 1013.5 |
| 20260508163012 | 65 | 54 | 1.7 | 7.0 | 0.00 | 0.00 | 0.00 | 47 | 1013.8 |
| 20260508161504 | 65 | 96 | 2.6 | 6.1 | 0.00 | 0.00 | 0.00 | 47 | 1013.7 |
| 20260508160004 | 64 | 68 | 2.6 | 5.2 | 0.00 | 0.00 | 0.00 | 48 | 1013.9 |
| 20260508154506 | 63 | 70 | 2.6 | 6.1 | 0.00 | 0.00 | 0.00 | 49 | 1014.0 |
| 20260508153010 | 62 | 76 | 1.7 | 6.1 | 0.00 | 0.00 | 0.00 | 50 | 1014.3 |
| 20260508151515 | 63 | 64 | 2.6 | 6.1 | 0.00 | 0.00 | 0.00 | 49 | 1014.3 |
| 20260508150003 | 63 | 65 | 2.6 | 6.1 | 0.00 | 0.00 | 0.00 | 49 | 1014.3 |
| 20260508144505 | 62 | 70 | 2.6 | 6.1 | 0.00 | 0.00 | 0.00 | 50 | 1014.4 |
| 20260508143016 | 62 | 65 | 1.7 | 5.2 | 0.00 | 0.00 | 0.00 | 51 | 1014.5 |
| 20260508141520 | 60 | 78 | 1.7 | 6.1 | 0.00 | 0.00 | 0.00 | 53 | 1014.6 |
| 20260508140019 | 60 | 53 | 2.6 | 6.1 | 0.00 | 0.00 | 0.00 | 52 | 1014.7 |
| 20260508134502 | 60 | 65 | 1.7 | 7.8 | 0.00 | 0.00 | 0.00 | 51 | 1014.8 |
| 20260508133006 | 59 | 75 | 2.6 | 5.2 | 0.00 | 0.00 | 0.00 | 51 | 1014.9 |
| 20260508131513 | 58 | 72 | 3.5 | 5.2 | 0.00 | 0.00 | 0.00 | 52 | 1014.9 |
| 20260508130020 | 58 | 58 | 1.7 | 3.5 | 0.00 | 0.00 | 0.00 | 53 | 1015.0 |
| 20260508124521 | 57 | 85 | 0.9 | 2.6 | 0.00 | 0.00 | 0.00 | 53 | 1014.9 |
| 20260508123007 | 56 | 74 | 0.9 | 1.7 | 0.00 | 0.00 | 0.00 | 55 | 1014.8 |
| 20260508121510 | 55 | 71 | 0.0 | 1.7 | 0.00 | 0.00 | 0.00 | 57 | 1014.9 |
| 20260508120019 | 53 | 74 | 0.0 | 0.9 | 0.00 | 0.00 | 0.00 | 60 | 1014.9 |
| 20260508114527 | 51 | 78 | 0.0 | 0.9 | 0.00 | 0.00 | 0.00 | 63 | 1014.8 |
| 20260508113034 | 50 | 79 | 0.0 | 0.9 | 0.00 | 0.00 | 0.00 | 63 | 1014.7 |
| 20260508111505 | 50 | 53 | 0.0 | 1.7 | 0.00 | 0.00 | 0.00 | 64 | 1014.7 |
| 20260508110008 | 50 | 109 | 0.9 | 2.6 | 0.00 | 0.00 | 0.00 | 61 | 1014.5 |
| 20260508104515 | 50 | 50 | 0.9 | 2.6 | 0.00 | 0.00 | 0.00 | 60 | 1014.3 |
| 20260508103018 | 50 | 49 | 0.9 | 3.5 | 0.00 | 0.00 | 0.00 | 60 | 1014.3 |
| 20260508101530 | 50 | 53 | 0.0 | 1.7 | 0.00 | 0.00 | 0.00 | 60 | 1014.2 |
| 20260508100009 | 50 | 58 | 0.0 | 1.7 | 0.00 | 0.00 | 0.00 | 62 | 1014.2 |
| 20260508094513 | 51 | 63 | 0.0 | 2.6 | 0.00 | 0.00 | 0.00 | 61 | 1014.3 |
| 20260508093016 | 51 | 53 | 0.9 | 1.7 | 0.00 | 0.00 | 0.00 | 59 | 1014.4 |
| 20260508091523 | 52 | 63 | 0.9 | 1.7 | 0.00 | 0.00 | 0.00 | 57 | 1014.4 |
| 20260508090033 | 53 | 59 | 0.9 | 3.5 | 0.00 | 0.00 | 0.00 | 56 | 1014.4 |
| 20260508084508 | 53 | 40 | 0.9 | 2.6 | 0.00 | 0.00 | 0.00 | 55 | 1014.5 |
| 20260508083015 | 53 | 44 | 0.9 | 1.7 | 0.00 | 0.00 | 0.00 | 55 | 1014.7 |
| 20260508081519 | 53 | 66 | 0.0 | 2.6 | 0.00 | 0.00 | 0.00 | 56 | 1014.8 |
| 20260508080024 | 53 | 74 | 0.9 | 3.5 | 0.00 | 0.00 | 0.00 | 54 | 1014.9 |
| 20260508074526 | 53 | 88 | 0.9 | 4.3 | 0.00 | 0.00 | 0.00 | 54 | 1014.9 |
| 20260508073012 | 53 | 31 | 0.9 | 2.6 | 0.00 | 0.00 | 0.00 | 55 | 1014.8 |
| 20260508071515 | 52 | 61 | 2.6 | 4.3 | 0.00 | 0.00 | 0.00 | 55 | 1014.8 |
| 20260508070021 | 53 | 55 | 1.7 | 4.3 | 0.00 | 0.00 | 0.00 | 55 | 1014.7 |
| 20260508064547 | 53 | 72 | 1.7 | 3.5 | 0.00 | 0.00 | 0.00 | 53 | 1015.0 |
| 20260508063010 | 53 | 60 | 0.9 | 5.2 | 0.00 | 0.00 | 0.00 | 53 | 1015.2 |
| 20260508061514 | 53 | 69 | 1.7 | 4.3 | 0.00 | 0.00 | 0.00 | 53 | 1015.1 |
| 20260508060018 | 53 | 56 | 0.9 | 4.3 | 0.00 | 0.00 | 0.00 | 54 | 1015.1 |